DW3371 Weather Reports


time (UTC)temp
F
wind
direction
speed
knots
gust
knots
rain 1hr
in
rain 24hr
in
rain mn
in
humidity
%
barometer
mb
20260506000234 49 0 6.1 13.0 0.00 0.00 0.00 77 1012.2
20260505233234 49 19 6.1 10.4 0.00 0.00 0.00 76 1012.4
20260505230235 50 16 4.3 11.3 0.00 0.00 0.00 76 1012.5
20260505223234 51 26 5.2 12.2 0.00 0.00 0.00 77 1012.6
20260505220240 51 64 5.2 13.0 0.00 0.00 0.00 74 1012.5
20260505210240 52 45 5.2 13.0 0.00 0.00 0.00 77 1012.4
20260505203233 52 23 5.2 12.2 0.00 0.00 0.00 77 1012.3
20260505193241 53 40 6.1 15.6 0.00 0.00 0.00 75 1011.7
20260505190233 54 52 7.0 16.5 0.00 0.00 0.00 73 1011.4
20260505183256 55 25 8.7 20.0 0.00 0.00 0.00 71 1011.3
20260505180234 57 355 8.7 18.2 0.00 0.00 0.00 67 1011.0
20260505173233 58 56 7.8 14.8 0.00 0.00 0.00 65 1010.9
20260505170233 59 42 7.8 15.6 0.00 0.00 0.00 62 1010.8
20260505163239 61 69 6.1 14.8 0.00 0.00 0.00 62 1010.8
20260505160237 59 52 7.0 15.6 0.00 0.00 0.00 65 1010.6
20260505153237 60 44 6.1 13.0 0.00 0.00 0.00 66 1010.6
20260505150253 60 44 5.2 14.8 0.00 0.00 0.00 64 1010.7
20260505140232 63 355 3.5 9.6 0.00 0.00 0.00 53 1010.6
20260505130230 63 5 4.3 9.6 0.00 0.00 0.00 55 1010.7
20260505123232 61 22 2.6 9.6 0.00 0.00 0.00 59 1010.7
20260505120227 61 5 5.2 10.4 0.00 0.00 0.00 61 1010.9
20260505113227 60 355 5.2 10.4 0.00 0.00 0.00 63 1011.1
20260505110231 60 35 3.5 8.7 0.00 0.00 0.00 64 1011.4
20260505100223 58 337 3.5 8.7 0.00 0.00 0.00 69 1011.6
20260505093231 57 317 2.6 7.0 0.00 0.00 0.00 70 1011.8
20260505090222 56 0 2.6 7.0 0.00 0.00 0.00 75 1011.9
20260505083223 56 39 0.9 4.3 0.00 0.00 0.00 75 1012.1
20260505080222 55 51 1.7 5.2 0.00 0.00 0.00 77 1012.1
20260505073228 53 82 0.9 2.6 0.00 0.00 0.00 82 1012.1
20260505070220 51 109 0.0 2.6 0.00 0.00 0.00 83 1012.2
20260505063222 50 109 0.9 3.5 0.00 0.00 0.00 85 1012.5
20260505060223 49 79 0.0 2.6 0.00 0.00 0.00 86 1012.4
20260505050224 48 78 0.0 3.5 0.00 0.00 0.00 87 1012.5
20260505033222 50 63 0.0 3.5 0.00 0.00 0.00 85 1012.3
20260505030221 51 63 0.9 2.6 0.00 0.00 0.00 84 1012.4
20260505023220 51 59 0.0 2.6 0.00 0.00 0.00 84 1012.6
20260505020224 51 132 0.0 0.0 0.00 0.00 0.00 83 1012.5
20260505013222 51 132 0.9 3.5 0.00 0.00 0.00 83 1012.8
20260505010220 51 112 1.7 3.5 0.00 0.00 0.00 82 1013.0
20260505003221 52 128 0.0 3.5 0.00 0.00 0.00 82 1013.2